Location: Ansan
(43.6898°N, 0.7731°E)
Time: 07:46:07
(UTC+00:00)

Cosmos 2237 - Pass Details

Date: 15 May 2026
Orbit: 845 x 858 km, 70.8° (Epoch: 6 June)

Event Time Altitude Azimuth Distance (km) Brightness Sun altitude
Rises 20:38:43 0° 332° (NNW) 3,440 8.9 -13.1°
Reaches altitude 10° 20:41:11 10° 330° (NNW) 2,500 7.9 -13.4°
Maximum altitude 20:46:53 68° 249° (WSW) 923 4.5 -14.1°
Enters shadow 20:51:30 16° 169° (S) 2,093 5.8 -14.7°
